Home   Weather   25°48'N, 100°18'W   Past weeks
Flag for Mexico

Past Weather in 25°48'N, 100°18'W, Mexico — Yesterday and Last 2 Weeks

Now
79 °F

Sunny.


Feels Like: 80 °F
Forecast: N/A
Wind: 5 mph from Northeast

Location: Aerop. Internacional Monterrey - N. L.

Current Time: Mar 24, 2019 at 3:48:23 pm

Latest Report: Mar 24, 2019 at 2:40 pm


Visibility: 8 mi

Pressure: 30.02 "Hg

Humidity: 58%

Dew Point: 63 °F

Location of 25°48'N, 100°18'WLocation

Past Weather in 25°48'N, 100°18'W — Graph

°F

25°48'N, 100°18'W Temperature Yesterday

Maximum temperature yesterday: 81 °F (at 3:40 pm)
Minimum temperature yesterday: 61 °F (at 5:40 am)
Average temperature yesterday: 71 °F

High & Low Weather Summary for the Past Weeks

 TemperatureHumidityPressure
High93 °F (Mar 13, 3:40 pm)100% (Mar 21, 8:40 am)30.43 "Hg (Mar 21, 8:40 am)
Low46 °F (Mar 15, 9:40 pm)15% (Mar 14, 10:40 am)29.64 "Hg (Mar 13, 3:40 pm)
Average65 °F65%30.12 "Hg
* Reported Mar 10 6:40 am — Mar 24 1:40 pm, 25°48'N, 100°18'W. Weather by CustomWeather, © 2019

Note: Actual official high and low records may vary slightly from our data, if they occured in-between our weather recording intervals... More about our weather records

Advertising

25°48'N, 100°18'W Weather History for the Previous 24 Hours

Scroll right to see more
 ConditionsComfort  
Time TempWeatherWind HumidityBarometerVisibility
1:40 pm
Sun, Mar 24
79 °FPassing clouds.13 mph54%30.04 "Hg7 mi
12:40 pm75 °FPassing clouds.8 mph61%30.07 "Hg5 mi
11:40 am75 °FScattered clouds.8 mph65%30.09 "Hg5 mi
10:40 am72 °FOvercast.6 mph69%30.10 "Hg4 mi
9:40 am68 °FOvercast.No wind83%30.10 "Hg4 mi
8:40 am66 °FLow clouds.3 mph88%30.09 "Hg3 mi
8:04 am64 °FFog.No wind94%30.07 "Hg2 mi
6:42 am64 °FFog.No wind100%30.06 "Hg3 mi
11:40 pm
Sat, Mar 23
66 °FPassing clouds.10 mph88%30.08 "Hg6 mi
10:40 pm68 °FPassing clouds.7 mph78%30.09 "Hg7 mi
9:40 pm68 °FClear.5 mph73%30.07 "Hg8 mi
8:40 pm70 °FClear.6 mph73%30.04 "Hg8 mi
7:40 pm73 °FPassing clouds.7 mph65%30.03 "Hg8 mi
6:40 pm75 °FPassing clouds.12 mph57%30.02 "Hg10 mi
5:40 pm79 °FPartly sunny.14 mph51%30.00 "Hg7 mi
4:40 pm79 °FPartly sunny.9 mph51%29.99 "Hg7 mi
3:40 pm81 °FScattered clouds.12 mph51%29.99 "Hg7 mi
Weather by CustomWeather, © 2019

See weather overview